Location: ?ernice
(48.8383°N, 14.3803°E)
Time: 19:26:28
(UTC+00:00)

Cosmos 2242 Rocket - Pass Details

Date: 23 May 2024
Orbit: 617 x 647 km, 82.5° (Epoch: 20 June)

Event Time Altitude Azimuth Distance (km) Brightness Sun altitude
Exits shadow 00:53:32 17° 161° (SSE) 1,568 5.2 -16.0°
Maximum altitude 00:56:38 47° 93° (E) 836 4.4 -15.8°
Drops below altitude 10° 01:00:57 10° 20° (NNE) 2,031 7.5 -15.4°
Sets 01:03:16 0° 15° (NNE) 2,949 8.6 -15.2°
